| time (UTC) | temp F | wind direction | speed MPH | gust MPH | rain 1hr in | rain 24hr in | rain mn in | humidity % | barometer mb |
| 20260906081714 | 61 | 5 | 1.0 | 3.0 | 0.00 | 0.01 | 0.00 | 94 | 1018.8 |
| 20260906081212 | 61 | 5 | 0.0 | 2.0 | 0.00 | 0.01 | 0.00 | 94 | 1018.8 |
| 20260906080714 | 61 | 5 | 0.0 | 2.0 | 0.00 | 0.01 | 0.00 | 94 | 1018.8 |
| 20260906080444 | 61 | 5 | 1.0 | 3.0 | 0.00 | 0.01 | 0.00 | 94 | 1018.8 |
| 20260906075710 | 61 | 9 | 2.0 | 3.0 | 0.00 | 0.01 | 0.00 | 94 | 1018.8 |
| 20260906075210 | 61 | 9 | 2.0 | 5.0 | 0.00 | 0.01 | 0.00 | 94 | 1018.9 |
| 20260906074940 | 61 | 9 | 2.0 | 5.0 | 0.00 | 0.01 | 0.00 | 94 | 1018.9 |
| 20260906074208 | 61 | 19 | 2.0 | 5.0 | 0.00 | 0.01 | 0.00 | 94 | 1019.0 |
| 20260906073711 | 61 | 340 | 3.0 | 4.0 | 0.00 | 0.01 | 0.00 | 94 | 1019.0 |
| 20260906073208 | 61 | 340 | 2.0 | 4.0 | 0.00 | 0.01 | 0.00 | 94 | 1019.1 |
| 20260906072704 | 61 | 342 | 2.0 | 3.0 | 0.00 | 0.01 | 0.00 | 94 | 1019.1 |
| 20260906072436 | 61 | 342 | 3.0 | 4.0 | 0.00 | 0.01 | 0.00 | 94 | 1019.0 |
| 20260906071929 | 61 | 344 | 2.0 | 4.0 | 0.00 | 0.01 | 0.00 | 94 | 1018.9 |
| 20260906071158 | 61 | 344 | 2.0 | 3.0 | 0.00 | 0.01 | 0.00 | 94 | 1018.9 |
| 20260906070930 | 61 | 355 | 3.0 | 4.0 | 0.00 | 0.01 | 0.00 | 94 | 1018.9 |
| 20260906070158 | 61 | 355 | 3.0 | 4.0 | 0.00 | 0.01 | 0.00 | 94 | 1018.8 |
| 20260906065930 | 61 | 0 | 3.0 | 4.0 | 0.00 | 0.01 | 0.00 | 94 | 1018.7 |
| 20260906065159 | 61 | 5 | 3.0 | 4.0 | 0.00 | 0.01 | 0.00 | 95 | 1018.7 |
| 20260906064653 | 61 | 5 | 3.0 | 4.0 | 0.00 | 0.01 | 0.00 | 95 | 1018.7 |
| 20260906064151 | 61 | 5 | 3.0 | 4.0 | 0.00 | 0.01 | 0.00 | 95 | 1018.7 |
| 20260906063649 | 61 | 21 | 2.0 | 4.0 | 0.00 | 0.01 | 0.00 | 94 | 1018.7 |
| 20260906063417 | 62 | 22 | 2.0 | 3.0 | 0.00 | 0.01 | 0.00 | 94 | 1018.6 |
| 20260906062647 | 62 | 22 | 1.0 | 3.0 | 0.00 | 0.01 | 0.00 | 94 | 1018.7 |
| 20260906062142 | 62 | 22 | 1.0 | 3.0 | 0.00 | 0.01 | 0.00 | 94 | 1018.6 |
| 20260906061914 | 62 | 22 | 1.0 | 2.0 | 0.00 | 0.01 | 0.00 | 94 | 1018.6 |
| 20260906061144 | 62 | 30 | 1.0 | 2.0 | 0.00 | 0.01 | 0.00 | 94 | 1018.6 |
| 20260906060642 | 62 | 30 | 1.0 | 2.0 | 0.00 | 0.01 | 0.00 | 94 | 1018.7 |
| 20260906060140 | 62 | 30 | 0.0 | 2.0 | 0.00 | 0.01 | 0.00 | 94 | 1018.7 |
| 20260906055642 | 62 | 30 | 1.0 | 2.0 | 0.00 | 0.01 | 0.00 | 94 | 1018.5 |
| 20260906055135 | 61 | 30 | 1.0 | 2.0 | 0.00 | 0.01 | 0.00 | 94 | 1018.5 |
| 20260906054633 | 62 | 30 | 2.0 | 2.0 | 0.00 | 0.01 | 0.00 | 93 | 1018.5 |
| 20260906054401 | 62 | 30 | 2.0 | 3.0 | 0.00 | 0.01 | 0.00 | 93 | 1018.5 |
| 20260906053628 | 62 | 30 | 2.0 | 3.0 | 0.00 | 0.01 | 0.00 | 93 | 1018.5 |
| 20260906053130 | 62 | 30 | 2.0 | 3.0 | 0.00 | 0.01 | 0.00 | 93 | 1018.4 |
| 20260906052622 | 62 | 30 | 1.0 | 3.0 | 0.00 | 0.01 | 0.00 | 93 | 1018.3 |
| 20260906052121 | 62 | 30 | 0.0 | 2.0 | 0.00 | 0.01 | 0.00 | 92 | 1018.2 |
| 20260906051618 | 62 | 30 | 0.0 | 0.0 | 0.00 | 0.01 | 0.00 | 93 | 1018.2 |
| 20260906051116 | 63 | 32 | 0.0 | 2.0 | 0.00 | 0.01 | 0.00 | 92 | 1018.0 |
| 20260906050617 | 63 | 32 | 0.0 | 2.0 | 0.00 | 0.01 | 0.00 | 93 | 1018.1 |
| 20260906050114 | 63 | 32 | 0.0 | 2.0 | 0.00 | 0.01 | 0.00 | 93 | 1018.1 |
| 20260906045614 | 63 | 32 | 0.0 | 2.0 | 0.00 | 0.01 | 0.01 | 93 | 1018.0 |
| 20260906045113 | 63 | 32 | 0.0 | 2.0 | 0.00 | 0.01 | 0.01 | 92 | 1018.0 |
| 20260906044610 | 63 | 32 | 0.0 | 1.0 | 0.00 | 0.01 | 0.01 | 92 | 1018.1 |
| 20260906044342 | 63 | 32 | 0.0 | 0.0 | 0.00 | 0.01 | 0.01 | 92 | 1018.1 |
| 20260906043609 | 63 | 34 | 0.0 | 0.0 | 0.00 | 0.01 | 0.01 | 92 | 1018.1 |
| 20260906043104 | 63 | 34 | 0.0 | 0.0 | 0.00 | 0.01 | 0.01 | 91 | 1018.1 |
| 20260906042602 | 63 | 34 | 0.0 | 0.0 | 0.00 | 0.01 | 0.01 | 91 | 1018.1 |
| 20260906042102 | 63 | 41 | 0.0 | 0.0 | 0.00 | 0.01 | 0.01 | 91 | 1018.1 |
| 20260906041603 | 63 | 41 | 0.0 | 0.0 | 0.00 | 0.01 | 0.01 | 91 | 1018.1 |
| 20260906041100 | 63 | 41 | 0.0 | 0.0 | 0.00 | 0.01 | 0.01 | 91 | 1017.9 |
| 20260906040602 | 63 | 41 | 0.0 | 0.0 | 0.00 | 0.01 | 0.01 | 90 | 1017.9 |
| 20260906040053 | 64 | 41 | 0.0 | 1.0 | 0.00 | 0.01 | 0.01 | 90 | 1017.9 |
| 20260906035553 | 64 | 41 | 0.0 | 1.0 | 0.00 | 0.01 | 0.01 | 90 | 1017.9 |
| 20260906035050 | 64 | 41 | 0.0 | 0.0 | 0.00 | 0.01 | 0.01 | 90 | 1017.9 |
| 20260906034548 | 64 | 49 | 0.0 | 0.0 | 0.00 | 0.01 | 0.01 | 90 | 1017.9 |
| 20260906034049 | 64 | 49 | 0.0 | 0.0 | 0.00 | 0.01 | 0.01 | 90 | 1017.8 |
| 20260906033544 | 64 | 50 | 0.0 | 0.0 | 0.00 | 0.01 | 0.01 | 90 | 1017.7 |
| 20260906033045 | 65 | 50 | 0.0 | 0.0 | 0.00 | 0.01 | 0.01 | 90 | 1017.8 |
| 20260906032542 | 65 | 50 | 0.0 | 1.0 | 0.00 | 0.01 | 0.01 | 89 | 1017.7 |
| 20260906032043 | 65 | 50 | 0.0 | 1.0 | 0.00 | 0.01 | 0.01 | 89 | 1017.7 |
| 20260906031539 | 66 | 54 | 0.0 | 0.0 | 0.00 | 0.01 | 0.01 | 89 | 1017.6 |
| 20260906031040 | 66 | 54 | 0.0 | 0.0 | 0.00 | 0.01 | 0.01 | 88 | 1017.6 |
| 20260906030539 | 66 | 54 | 0.0 | 0.0 | 0.00 | 0.01 | 0.01 | 88 | 1017.7 |
| 20260906030037 | 67 | 54 | 0.0 | 0.0 | 0.00 | 0.01 | 0.01 | 88 | 1017.6 |
| 20260906025539 | 67 | 54 | 0.0 | 0.0 | 0.00 | 0.01 | 0.01 | 87 | 1017.6 |
| 20260906025036 | 67 | 54 | 0.0 | 0.0 | 0.00 | 0.01 | 0.01 | 86 | 1017.6 |
| 20260906024534 | 67 | 54 | 0.0 | 0.0 | 0.00 | 0.01 | 0.01 | 86 | 1017.6 |
| 20260906024035 | 67 | 54 | 0.0 | 1.0 | 0.00 | 0.01 | 0.01 | 85 | 1017.7 |
| 20260906023534 | 67 | 54 | 0.0 | 2.0 | 0.00 | 0.01 | 0.01 | 84 | 1017.7 |
| 20260906023302 | 67 | 54 | 0.0 | 2.0 | 0.00 | 0.01 | 0.01 | 84 | 1017.7 |
| 20260906022532 | 67 | 54 | 0.0 | 2.0 | 0.00 | 0.01 | 0.01 | 84 | 1017.7 |
| 20260906022031 | 68 | 54 | 0.0 | 2.0 | 0.00 | 0.01 | 0.01 | 83 | 1017.7 |
| 20260906021802 | 68 | 54 | 1.0 | 3.0 | 0.00 | 0.01 | 0.01 | 83 | 1017.6 |
| 20260906021028 | 68 | 54 | 1.0 | 3.0 | 0.00 | 0.01 | 0.01 | 84 | 1017.6 |
| 20260906020531 | 68 | 53 | 1.0 | 2.0 | 0.00 | 0.01 | 0.01 | 84 | 1017.7 |
| 20260906020527 | 68 | 53 | 1.0 | 2.0 | 0.00 | 0.01 | 0.01 | 84 | 1017.7 |
| 20260906015526 | 69 | 53 | 1.0 | 2.0 | 0.00 | 0.01 | 0.01 | 84 | 1017.6 |
| 20260906015257 | 69 | 53 | 1.0 | 3.0 | 0.00 | 0.01 | 0.01 | 83 | 1017.5 |
| 20260906014527 | 69 | 53 | 1.0 | 3.0 | 0.00 | 0.01 | 0.01 | 83 | 1017.6 |
| 20260906014022 | 69 | 51 | 1.0 | 4.0 | 0.00 | 0.01 | 0.01 | 84 | 1017.6 |
| 20260906013523 | 69 | 51 | 1.0 | 4.0 | 0.00 | 0.01 | 0.01 | 83 | 1017.5 |
| 20260906013254 | 69 | 51 | 1.0 | 3.0 | 0.00 | 0.01 | 0.01 | 84 | 1017.4 |
| 20260906012522 | 70 | 50 | 1.0 | 3.0 | 0.00 | 0.01 | 0.01 | 84 | 1017.4 |
| 20260906012021 | 70 | 50 | 2.0 | 4.0 | 0.00 | 0.01 | 0.01 | 84 | 1017.4 |
| 20260906011522 | 70 | 53 | 1.0 | 4.0 | 0.00 | 0.01 | 0.01 | 83 | 1017.4 |
| 20260906011017 | 70 | 37 | 0.0 | 3.0 | 0.00 | 0.01 | 0.01 | 83 | 1017.4 |
| 20260906010519 | 70 | 63 | 1.0 | 3.0 | 0.00 | 0.01 | 0.01 | 83 | 1017.4 |
| 20260906010250 | 71 | 63 | 1.0 | 3.0 | 0.00 | 0.01 | 0.01 | 83 | 1017.3 |
| 20260906005518 | 71 | 63 | 1.0 | 2.0 | 0.00 | 0.01 | 0.01 | 82 | 1017.2 |
| 20260906005249 | 71 | 63 | 1.0 | 3.0 | 0.00 | 0.01 | 0.01 | 82 | 1017.1 |
| 20260906004517 | 71 | 63 | 1.0 | 3.0 | 0.00 | 0.01 | 0.01 | 82 | 1017.1 |
| 20260906004251 | 71 | 64 | 2.0 | 4.0 | 0.00 | 0.01 | 0.01 | 82 | 1017.1 |
| 20260906003751 | 71 | 64 | 2.0 | 5.0 | 0.00 | 0.01 | 0.01 | 81 | 1017.0 |
| 20260906003018 | 72 | 62 | 2.0 | 5.0 | 0.00 | 0.01 | 0.01 | 81 | 1017.0 |
| 20260906002519 | 72 | 68 | 2.0 | 4.0 | 0.00 | 0.01 | 0.01 | 81 | 1017.0 |
| 20260906002019 | 72 | 67 | 2.0 | 4.0 | 0.00 | 0.01 | 0.01 | 81 | 1017.0 |
| 20260906001513 | 73 | 46 | 1.0 | 4.0 | 0.00 | 0.01 | 0.01 | 81 | 1017.0 |
| 20260906001013 | 73 | 46 | 1.0 | 5.0 | 0.00 | 0.01 | 0.01 | 80 | 1017.1 |
| 20260906000514 | 73 | 42 | 2.0 | 5.0 | 0.00 | 0.01 | 0.01 | 79 | 1017.1 |
| 20260906000013 | 73 | 47 | 2.0 | 5.0 | 0.00 | 0.01 | 0.01 | 79 | 1017.0 |
| 20260905235515 | 74 | 24 | 3.0 | 7.0 | 0.00 | 0.01 | 0.01 | 79 | 1017.0 |
| 20260905235245 | 74 | 58 | 3.0 | 7.0 | 0.00 | 0.01 | 0.01 | 79 | 1017.0 |
| 20260905234514 | 74 | 355 | 2.0 | 7.0 | 0.00 | 0.01 | 0.01 | 78 | 1017.0 |
| 20260905234012 | 74 | 32 | 2.0 | 4.0 | 0.00 | 0.01 | 0.01 | 78 | 1016.9 |
| 20260905233512 | 74 | 50 | 2.0 | 10.0 | 0.00 | 0.01 | 0.01 | 78 | 1016.9 |
| 20260905233007 | 74 | 18 | 3.0 | 10.0 | 0.00 | 0.01 | 0.01 | 77 | 1017.0 |
| 20260905232508 | 75 | 74 | 3.0 | 9.0 | 0.00 | 0.01 | 0.01 | 77 | 1017.0 |
| 20260905232008 | 75 | 40 | 4.0 | 9.0 | 0.00 | 0.01 | 0.01 | 77 | 1017.2 |
| 20260905231508 | 75 | 15 | 4.0 | 9.0 | 0.00 | 0.01 | 0.01 | 76 | 1017.2 |
| 20260905231007 | 75 | 56 | 5.0 | 9.0 | 0.00 | 0.01 | 0.01 | 76 | 1017.2 |
| 20260905230508 | 75 | 11 | 5.0 | 9.0 | 0.00 | 0.01 | 0.01 | 76 | 1017.1 |
| 20260905230007 | 75 | 23 | 4.0 | 9.0 | 0.00 | 0.01 | 0.01 | 77 | 1017.2 |
| 20260905225501 | 75 | 35 | 5.0 | 14.0 | 0.00 | 0.01 | 0.01 | 77 | 1017.1 |
| 20260905225002 | 75 | 27 | 5.0 | 14.0 | 0.00 | 0.01 | 0.01 | 77 | 1017.0 |
| 20260905224502 | 75 | 30 | 3.0 | 9.0 | 0.00 | 0.01 | 0.01 | 77 | 1017.0 |
| 20260905224002 | 75 | 355 | 3.0 | 8.0 | 0.00 | 0.01 | 0.01 | 77 | 1017.0 |
| 20260905223503 | 75 | 106 | 3.0 | 9.0 | 0.00 | 0.01 | 0.01 | 77 | 1016.8 |
| 20260905223002 | 75 | 5 | 4.0 | 10.0 | 0.00 | 0.01 | 0.01 | 78 | 1016.8 |
| 20260905222504 | 75 | 0 | 5.0 | 10.0 | 0.00 | 0.01 | 0.01 | 78 | 1016.8 |
| 20260905221956 | 75 | 55 | 4.0 | 10.0 | 0.00 | 0.01 | 0.01 | 78 | 1016.8 |
| 20260905221453 | 75 | 30 | 4.0 | 8.0 | 0.00 | 0.01 | 0.01 | 78 | 1016.8 |
| 20260905220954 | 75 | 81 | 4.0 | 12.0 | 0.00 | 0.01 | 0.01 | 78 | 1016.8 |
| 20260905220454 | 75 | 84 | 4.0 | 12.0 | 0.00 | 0.01 | 0.01 | 78 | 1016.9 |
| 20260905215954 | 75 | 38 | 4.0 | 9.0 | 0.00 | 0.01 | 0.01 | 79 | 1016.9 |
| 20260905215454 | 75 | 50 | 5.0 | 10.0 | 0.00 | 0.01 | 0.01 | 80 | 1016.9 |
| 20260905214951 | 75 | 0 | 4.0 | 10.0 | 0.00 | 0.01 | 0.01 | 80 | 1016.9 |
| 20260905214455 | 74 | 65 | 3.0 | 8.0 | 0.00 | 0.01 | 0.01 | 82 | 1017.0 |
| 20260905214450 | 75 | 77 | 3.0 | 9.0 | 0.00 | 0.01 | 0.01 | 82 | 1017.0 |
| 20260905213447 | 74 | 61 | 3.0 | 8.0 | 0.00 | 0.01 | 0.01 | 82 | 1017.0 |
| 20260905212948 | 74 | 5 | 3.0 | 9.0 | 0.00 | 0.01 | 0.01 | 83 | 1017.1 |
| 20260905212447 | 74 | 32 | 3.0 | 9.0 | 0.00 | 0.01 | 0.01 | 83 | 1017.0 |
| 20260905212216 | 74 | 68 | 2.0 | 8.0 | 0.00 | 0.01 | 0.01 | 83 | 1017.1 |
| 20260905211446 | 74 | 80 | 2.0 | 5.0 | 0.00 | 0.01 | 0.01 | 84 | 1017.1 |
| 20260905210943 | 74 | 40 | 3.0 | 7.0 | 0.00 | 0.01 | 0.01 | 84 | 1017.2 |
| 20260905210443 | 74 | 17 | 3.0 | 7.0 | 0.00 | 0.01 | 0.01 | 84 | 1017.2 |
| 20260905205941 | 74 | 53 | 3.0 | 8.0 | 0.00 | 0.01 | 0.01 | 84 | 1017.1 |
| 20260905205440 | 74 | 27 | 3.0 | 8.0 | 0.00 | 0.01 | 0.01 | 83 | 1017.1 |
| 20260905204939 | 74 | 79 | 3.0 | 8.0 | 0.00 | 0.01 | 0.01 | 83 | 1017.0 |
| 20260905204435 | 74 | 37 | 3.0 | 8.0 | 0.00 | 0.01 | 0.01 | 83 | 1017.0 |
| 20260905203933 | 74 | 38 | 2.0 | 7.0 | 0.00 | 0.01 | 0.01 | 84 | 1016.9 |
| 20260905203431 | 74 | 60 | 2.0 | 6.0 | 0.00 | 0.01 | 0.01 | 84 | 1016.9 |
| 20260905202927 | 74 | 53 | 3.0 | 6.0 | 0.00 | 0.01 | 0.01 | 84 | 1016.9 |
| 20260905202428 | 74 | 37 | 4.0 | 9.0 | 0.00 | 0.01 | 0.01 | 84 | 1016.9 |
| 20260905201921 | 74 | 35 | 4.0 | 9.0 | 0.00 | 0.01 | 0.01 | 84 | 1016.9 |
| 20260905201422 | 74 | 0 | 3.0 | 8.0 | 0.00 | 0.01 | 0.01 | 84 | 1016.9 |
| 20260905200921 | 74 | 66 | 3.0 | 8.0 | 0.00 | 0.01 | 0.01 | 85 | 1016.9 |
| 20260905200421 | 74 | 22 | 2.0 | 7.0 | 0.00 | 0.01 | 0.01 | 85 | 1016.9 |
| 20260905195922 | 74 | 72 | 2.0 | 6.0 | 0.00 | 0.01 | 0.01 | 85 | 1017.0 |
| 20260905195421 | 74 | 26 | 3.0 | 6.0 | 0.00 | 0.01 | 0.01 | 85 | 1017.0 |
| 20260905194915 | 74 | 28 | 3.0 | 6.0 | 0.00 | 0.01 | 0.01 | 85 | 1017.0 |
| 20260905194415 | 74 | 14 | 3.0 | 8.0 | 0.00 | 0.01 | 0.01 | 85 | 1017.0 |
| 20260905193915 | 74 | 19 | 4.0 | 9.0 | 0.00 | 0.01 | 0.01 | 84 | 1017.0 |
| 20260905193646 | 74 | 50 | 4.0 | 9.0 | 0.00 | 0.01 | 0.01 | 85 | 1017.0 |
| 20260905192915 | 74 | 28 | 3.0 | 8.0 | 0.00 | 0.01 | 0.01 | 86 | 1017.1 |
| 20260905192417 | 74 | 33 | 2.0 | 6.0 | 0.00 | 0.01 | 0.01 | 86 | 1017.1 |
| 20260905191911 | 74 | 101 | 3.0 | 6.0 | 0.00 | 0.01 | 0.01 | 87 | 1017.0 |
| 20260905191410 | 74 | 40 | 3.0 | 6.0 | 0.00 | 0.01 | 0.01 | 87 | 1017.0 |
| 20260905190906 | 74 | 351 | 3.0 | 6.0 | 0.00 | 0.01 | 0.01 | 88 | 1017.1 |
| 20260905190403 | 73 | 86 | 3.0 | 7.0 | 0.00 | 0.01 | 0.01 | 88 | 1017.1 |
| 20260905190135 | 73 | 47 | 3.0 | 7.0 | 0.00 | 0.01 | 0.01 | 88 | 1017.1 |
| 20260905185359 | 73 | 76 | 2.0 | 7.0 | 0.00 | 0.01 | 0.01 | 88 | 1017.0 |
| 20260905184900 | 73 | 28 | 3.0 | 8.0 | 0.00 | 0.01 | 0.01 | 88 | 1017.2 |
| 20260905184358 | 73 | 52 | 4.0 | 8.0 | 0.00 | 0.01 | 0.01 | 88 | 1017.2 |
| 20260905183858 | 73 | 34 | 4.0 | 9.0 | 0.00 | 0.01 | 0.01 | 87 | 1017.2 |
| 20260905183357 | 73 | 12 | 4.0 | 9.0 | 0.00 | 0.01 | 0.01 | 88 | 1017.3 |
| 20260905182858 | 73 | 34 | 3.0 | 8.0 | 0.00 | 0.01 | 0.01 | 87 | 1017.3 |
| 20260905182354 | 73 | 46 | 3.0 | 8.0 | 0.00 | 0.01 | 0.01 | 87 | 1017.3 |
| 20260905181853 | 73 | 51 | 4.0 | 8.0 | 0.00 | 0.01 | 0.01 | 88 | 1017.2 |
| 20260905181354 | 74 | 98 | 5.0 | 8.0 | 0.00 | 0.01 | 0.01 | 87 | 1017.1 |
| 20260905180854 | 74 | 100 | 5.0 | 9.0 | 0.00 | 0.01 | 0.01 | 86 | 1017.1 |
| 20260905180351 | 74 | 84 | 4.0 | 9.0 | 0.00 | 0.01 | 0.01 | 87 | 1017.1 |
| 20260905175854 | 74 | 74 | 4.0 | 9.0 | 0.00 | 0.01 | 0.01 | 87 | 1017.0 |
| 20260905175346 | 74 | 49 | 4.0 | 9.0 | 0.00 | 0.01 | 0.01 | 87 | 1017.1 |
| 20260905174845 | 74 | 36 | 4.0 | 9.0 | 0.00 | 0.01 | 0.01 | 88 | 1017.1 |
| 20260905174346 | 73 | 64 | 5.0 | 9.0 | 0.00 | 0.01 | 0.01 | 87 | 1017.1 |
| 20260905173845 | 73 | 99 | 4.0 | 9.0 | 0.00 | 0.01 | 0.01 | 87 | 1017.1 |
| 20260905173345 | 73 | 90 | 4.0 | 9.0 | 0.00 | 0.01 | 0.01 | 88 | 1017.1 |
| 20260905172846 | 73 | 47 | 4.0 | 9.0 | 0.00 | 0.01 | 0.01 | 88 | 1017.1 |
| 20260905172612 | 73 | 69 | 5.0 | 10.0 | 0.00 | 0.01 | 0.01 | 88 | 1017.2 |
| 20260905171839 | 73 | 40 | 4.0 | 10.0 | 0.00 | 0.01 | 0.01 | 88 | 1017.2 |
| 20260905171339 | 73 | 61 | 4.0 | 8.0 | 0.00 | 0.01 | 0.01 | 89 | 1017.2 |
| 20260905170838 | 73 | 72 | 4.0 | 9.0 | 0.00 | 0.01 | 0.01 | 89 | 1017.2 |
| 20260905170337 | 73 | 63 | 3.0 | 9.0 | 0.00 | 0.01 | 0.01 | 89 | 1017.2 |
| 20260905165838 | 73 | 46 | 2.0 | 8.0 | 0.00 | 0.01 | 0.01 | 90 | 1017.4 |
| 20260905165336 | 72 | 5 | 3.0 | 9.0 | 0.00 | 0.01 | 0.01 | 90 | 1017.4 |
| 20260905165107 | 72 | 44 | 4.0 | 9.0 | 0.00 | 0.01 | 0.01 | 90 | 1017.5 |
| 20260905164335 | 72 | 62 | 4.0 | 11.0 | 0.00 | 0.01 | 0.01 | 91 | 1017.4 |
| 20260905163837 | 72 | 30 | 3.0 | 11.0 | 0.00 | 0.01 | 0.01 | 91 | 1017.4 |
| 20260905163335 | 72 | 94 | 3.0 | 9.0 | 0.00 | 0.01 | 0.01 | 91 | 1017.2 |
| 20260905162833 | 72 | 39 | 3.0 | 9.0 | 0.00 | 0.01 | 0.01 | 91 | 1017.2 |
| 20260905162334 | 72 | 46 | 3.0 | 6.0 | 0.00 | 0.01 | 0.01 | 92 | 1017.1 |
| 20260905161828 | 72 | 49 | 3.0 | 6.0 | 0.00 | 0.01 | 0.01 | 92 | 1017.3 |
| 20260905161330 | 72 | 77 | 3.0 | 7.0 | 0.00 | 0.01 | 0.01 | 92 | 1017.3 |
| 20260905160830 | 71 | 65 | 3.0 | 7.0 | 0.00 | 0.01 | 0.01 | 92 | 1017.3 |
| 20260905160329 | 71 | 74 | 3.0 | 9.0 | 0.00 | 0.01 | 0.01 | 93 | 1017.2 |
| 20260905155828 | 71 | 117 | 4.0 | 10.0 | 0.00 | 0.01 | 0.01 | 92 | 1017.2 |
| 20260905155328 | 71 | 41 | 5.0 | 10.0 | 0.00 | 0.01 | 0.01 | 92 | 1017.2 |
| 20260905154823 | 71 | 70 | 4.0 | 10.0 | 0.00 | 0.01 | 0.01 | 92 | 1017.1 |
| 20260905154323 | 71 | 45 | 4.0 | 9.0 | 0.00 | 0.01 | 0.01 | 92 | 1017.0 |
| 20260905153824 | 71 | 0 | 4.0 | 10.0 | 0.00 | 0.01 | 0.01 | 92 | 1017.1 |
| 20260905153323 | 71 | 84 | 3.0 | 10.0 | 0.00 | 0.01 | 0.01 | 92 | 1017.0 |
| 20260905152824 | 71 | 98 | 3.0 | 9.0 | 0.00 | 0.01 | 0.01 | 93 | 1017.0 |
| 20260905152555 | 71 | 40 | 3.0 | 9.0 | 0.00 | 0.01 | 0.01 | 93 | 1017.0 |
| 20260905151824 | 71 | 13 | 3.0 | 9.0 | 0.00 | 0.01 | 0.01 | 93 | 1017.0 |
| 20260905151548 | 71 | 94 | 3.0 | 10.0 | 0.00 | 0.01 | 0.01 | 93 | 1017.0 |
| 20260905150820 | 71 | 59 | 4.0 | 10.0 | 0.00 | 0.01 | 0.01 | 94 | 1016.9 |
| 20260905150816 | 71 | 76 | 4.0 | 10.0 | 0.00 | 0.01 | 0.01 | 94 | 1017.0 |
| 20260905145815 | 71 | 71 | 5.0 | 10.0 | 0.00 | 0.01 | 0.01 | 94 | 1016.6 |
| 20260905145317 | 71 | 63 | 5.0 | 9.0 | 0.00 | 0.01 | 0.01 | 94 | 1016.6 |
| 20260905144815 | 71 | 82 | 5.0 | 10.0 | 0.00 | 0.01 | 0.01 | 95 | 1016.5 |
| 20260905144315 | 71 | 42 | 4.0 | 11.0 | 0.00 | 0.01 | 0.01 | 95 | 1016.4 |
| 20260905144041 | 71 | 93 | 5.0 | 12.0 | 0.00 | 0.01 | 0.01 | 96 | 1016.3 |
| 20260905143312 | 71 | 5 | 4.0 | 12.0 | 0.00 | 0.01 | 0.01 | 96 | 1016.2 |
| 20260905143041 | 71 | 23 | 4.0 | 12.0 | 0.00 | 0.01 | 0.01 | 96 | 1016.2 |
| 20260905142316 | 70 | 69 | 5.0 | 12.0 | 0.00 | 0.01 | 0.01 | 96 | 1016.0 |
| 20260905141810 | 70 | 34 | 5.0 | 12.0 | 0.00 | 0.01 | 0.01 | 97 | 1016.1 |
| 20260905141539 | 70 | 46 | 4.0 | 12.0 | 0.00 | 0.01 | 0.01 | 97 | 1016.2 |
| 20260905140809 | 70 | 46 | 4.0 | 11.0 | 0.00 | 0.01 | 0.01 | 97 | 1016.3 |
| 20260905140310 | 70 | 84 | 4.0 | 9.0 | 0.00 | 0.01 | 0.01 | 97 | 1016.3 |
| 20260905135805 | 70 | 59 | 4.0 | 9.0 | 0.00 | 0.01 | 0.01 | 97 | 1016.3 |
| 20260905135537 | 70 | 20 | 3.0 | 9.0 | 0.00 | 0.01 | 0.01 | 97 | 1016.4 |
| 20260905134806 | 70 | 24 | 4.0 | 10.0 | 0.00 | 0.01 | 0.01 | 98 | 1016.4 |
| 20260905134306 | 70 | 62 | 4.0 | 10.0 | 0.00 | 0.01 | 0.01 | 97 | 1016.4 |
| 20260905133810 | 70 | 45 | 4.0 | 8.0 | 0.00 | 0.01 | 0.01 | 97 | 1016.6 |
| 20260905133307 | 70 | 49 | 4.0 | 9.0 | 0.00 | 0.01 | 0.01 | 97 | 1016.6 |
| 20260905132801 | 70 | 20 | 3.0 | 9.0 | 0.00 | 0.01 | 0.01 | 98 | 1016.5 |
| 20260905132301 | 70 | 32 | 3.0 | 10.0 | 0.00 | 0.01 | 0.01 | 98 | 1016.4 |
| 20260905131802 | 69 | 37 | 4.0 | 10.0 | 0.00 | 0.01 | 0.01 | 98 | 1016.4 |
| 20260905131301 | 69 | 342 | 3.0 | 9.0 | 0.00 | 0.01 | 0.01 | 97 | 1016.3 |
| 20260905130802 | 70 | 26 | 3.0 | 9.0 | 0.00 | 0.01 | 0.01 | 98 | 1016.2 |
| 20260905130302 | 69 | 40 | 3.0 | 9.0 | 0.00 | 0.01 | 0.01 | 98 | 1016.0 |
| 20260905130028 | 69 | 31 | 3.0 | 11.0 | 0.00 | 0.01 | 0.01 | 98 | 1015.9 |
| 20260905125530 | 69 | 40 | 3.0 | 11.0 | 0.00 | 0.01 | 0.01 | 97 | 1015.9 |
| 20260905124757 | 69 | 33 | 3.0 | 10.0 | 0.00 | 0.01 | 0.01 | 97 | 1015.9 |
| 20260905124257 | 69 | 42 | 3.0 | 9.0 | 0.00 | 0.01 | 0.01 | 97 | 1015.9 |
| 20260905123800 | 69 | 65 | 3.0 | 9.0 | 0.00 | 0.01 | 0.01 | 97 | 1015.8 |
| 20260905123258 | 69 | 34 | 2.0 | 8.0 | 0.00 | 0.01 | 0.01 | 97 | 1015.8 |
| 20260905122752 | 69 | 29 | 2.0 | 7.0 | 0.00 | 0.01 | 0.01 | 97 | 1015.6 |
| 20260905122254 | 69 | 69 | 3.0 | 9.0 | 0.00 | 0.01 | 0.01 | 97 | 1015.6 |
| 20260905121754 | 69 | 51 | 3.0 | 9.0 | 0.00 | 0.01 | 0.01 | 97 | 1015.5 |
| 20260905121254 | 69 | 28 | 3.0 | 8.0 | 0.00 | 0.01 | 0.01 | 97 | 1015.5 |
| 20260905120755 | 69 | 14 | 3.0 | 8.0 | 0.00 | 0.01 | 0.01 | 97 | 1015.3 |
| 20260905120255 | 69 | 27 | 3.0 | 8.0 | 0.00 | 0.01 | 0.01 | 97 | 1015.3 |
| 20260905115746 | 69 | 20 | 3.0 | 8.0 | 0.01 | 0.01 | 0.01 | 97 | 1015.3 |
| 20260905115242 | 69 | 38 | 4.0 | 11.0 | 0.01 | 0.01 | 0.01 | 97 | 1015.2 |
| 20260905114739 | 69 | 21 | 4.0 | 11.0 | 0.01 | 0.01 | 0.01 | 97 | 1015.2 |
| 20260905114238 | 69 | 5 | 4.0 | 9.0 | 0.01 | 0.01 | 0.01 | 97 | 1015.1 |
| 20260905113739 | 69 | 31 | 4.0 | 8.0 | 0.01 | 0.01 | 0.01 | 97 | 1015.1 |
| 20260905113240 | 69 | 54 | 4.0 | 9.0 | 0.01 | 0.01 | 0.01 | 97 | 1015.1 |
| 20260905113010 | 69 | 50 | 4.0 | 9.0 | 0.01 | 0.02 | 0.01 | 97 | 1015.0 |
| 20260905112234 | 69 | 343 | 4.0 | 8.0 | 0.01 | 0.08 | 0.01 | 97 | 1014.9 |
| 20260905111733 | 69 | 5 | 4.0 | 9.0 | 0.01 | 0.08 | 0.01 | 97 | 1014.9 |
| 20260905111231 | 69 | 19 | 4.0 | 9.0 | 0.01 | 0.08 | 0.01 | 97 | 1014.9 |
| 20260905111003 | 69 | 42 | 3.0 | 9.0 | 0.01 | 0.09 | 0.01 | 97 | 1014.9 |
| 20260905110231 | 69 | 32 | 4.0 | 9.0 | 0.00 | 0.08 | 0.01 | 97 | 1014.8 |
| 20260905105731 | 69 | 17 | 4.0 | 9.0 | 0.00 | 0.08 | 0.00 | 97 | 1014.9 |
| 20260905105226 | 69 | 351 | 3.0 | 8.0 | 0.00 | 0.08 | 0.00 | 96 | 1014.8 |
| 20260905104723 | 69 | 19 | 3.0 | 8.0 | 0.00 | 0.08 | 0.00 | 96 | 1014.9 |
| 20260905104454 | 69 | 21 | 4.0 | 9.0 | 0.00 | 0.09 | 0.00 | 96 | 1014.9 |
| 20260905103720 | 69 | 51 | 3.0 | 9.0 | 0.00 | 0.10 | 0.00 | 96 | 1014.8 |
| 20260905103220 | 69 | 5 | 3.0 | 8.0 | 0.00 | 0.11 | 0.00 | 96 | 1014.8 |
| 20260905102720 | 69 | 60 | 3.0 | 8.0 | 0.00 | 0.13 | 0.00 | 96 | 1014.8 |
| 20260905102218 | 69 | 32 | 4.0 | 8.0 | 0.00 | 0.15 | 0.00 | 96 | 1014.8 |
| 20260905101949 | 69 | 293 | 3.0 | 8.0 | 0.00 | 0.18 | 0.00 | 96 | 1014.9 |
| 20260905101220 | 69 | 37 | 3.0 | 8.0 | 0.00 | 0.30 | 0.00 | 96 | 1014.9 |
| 20260905100717 | 69 | 41 | 4.0 | 9.0 | 0.00 | 0.39 | 0.00 | 95 | 1014.8 |
| 20260905100217 | 69 | 21 | 5.0 | 11.0 | 0.00 | 0.39 | 0.00 | 95 | 1014.8 |
| 20260905095948 | 69 | 27 | 5.0 | 11.0 | 0.00 | 0.39 | 0.00 | 95 | 1014.8 |
| 20260905095218 | 69 | 348 | 4.0 | 11.0 | 0.00 | 0.39 | 0.00 | 95 | 1014.8 |
| 20260905094945 | 69 | 350 | 5.0 | 11.0 | 0.00 | 0.39 | 0.00 | 95 | 1014.7 |
| 20260905094214 | 69 | 26 | 6.0 | 11.0 | 0.00 | 0.40 | 0.00 | 95 | 1014.7 |
| 20260905093714 | 70 | 42 | 4.0 | 11.0 | 0.00 | 0.40 | 0.00 | 94 | 1014.5 |
| 20260905093212 | 70 | 46 | 5.0 | 12.0 | 0.00 | 0.40 | 0.00 | 95 | 1014.5 |
| 20260905092712 | 70 | 26 | 5.0 | 12.0 | 0.00 | 0.40 | 0.00 | 94 | 1014.5 |
| 20260905092209 | 70 | 311 | 5.0 | 10.0 | 0.00 | 0.41 | 0.00 | 94 | 1014.5 |
| 20260905091704 | 70 | 26 | 6.0 | 10.0 | 0.00 | 0.41 | 0.00 | 94 | 1014.5 |
| 20260905091205 | 71 | 5 | 5.0 | 12.0 | 0.00 | 0.43 | 0.00 | 94 | 1014.4 |
| 20260905090706 | 71 | 23 | 4.0 | 12.0 | 0.00 | 0.50 | 0.00 | 94 | 1014.5 |
| 20260905090205 | 71 | 279 | 5.0 | 14.0 | 0.00 | 0.55 | 0.00 | 94 | 1014.5 |
| 20260905085704 | 71 | 327 | 5.0 | 14.0 | 0.00 | 0.62 | 0.00 | 94 | 1014.4 |
| 20260905085205 | 71 | 24 | 3.0 | 9.0 | 0.00 | 0.65 | 0.00 | 94 | 1014.5 |
| 20260905084709 | 71 | 36 | 3.0 | 8.0 | 0.00 | 0.71 | 0.00 | 94 | 1014.5 |
| 20260905084159 | 71 | 23 | 2.0 | 8.0 | 0.00 | 0.71 | 0.00 | 94 | 1014.4 |
| 20260905083658 | 71 | 20 | 1.0 | 4.0 | 0.00 | 0.73 | 0.00 | 94 | 1014.4 |
| 20260905083158 | 71 | 21 | 2.0 | 5.0 | 0.00 | 0.73 | 0.00 | 94 | 1014.3 |
| 20260905082659 | 71 | 44 | 2.0 | 6.0 | 0.00 | 0.74 | 0.00 | 94 | 1014.4 |
| 20260905082158 | 71 | 52 | 2.0 | 6.0 | 0.00 | 0.74 | 0.00 | 94 | 1014.4 |